Orbital Elements at Epoch 2459200.5 (2020-Dec-17.0) TDB
Reference: JPL 22 (heliocentric ecliptic J2000)
Element | Value | Uncertainty (1-sigma) | Units |
e | .09536116588313821 | 4.5169e-08 | |
a | 2.291091477576339 | 1.0548e-08 | au |
q | 2.072610323129738 | 1.0402e-07 | au |
i | 5.617158499409692 | 5.1126e-06 | deg |
node | 334.5149468683495 | 3.7189e-05 | deg |
peri | 184.009456802001 | 4.2828e-05 | deg |
M | 72.49558955912396 | 1.9934e-05 | deg |
tp | 2458945.423084369673 (2020-Apr-05.92308437) | 7.0289e-05 | TDB |
period | 1266.665878370812 3.47 | 8.7478e-06 2.395e-08 | d yr |
n | .2842107031911468 | 1.9628e-09 | deg/d |
Q | 2.509572632022941 | 1.1554e-08 | au |
|
| | Orbit Determination Parameters
Additional Information
|